This is the latest recevied weather packets stored in our database for station/object KF6ILA. If no packets are shown the sender has not sent any weather packets the latest 10 day(s).
| Time | Temp. | Humidity | Pressure | Rain* | Wind** | Luminosity | Snow |
|---|---|---|---|---|---|---|---|
| 1787540924 | 23.89° C | 45% | 1017.8 hPa | 0 mm | - | 0 W/m² | - |
| 1787540627 | 23.89° C | 45% | 1017.7 hPa | 0 mm | - | 0 W/m² | - |
| 1787540033 | 24.44° C | 44% | 1017.7 hPa | 0 mm | - | 0 W/m² | - |
| 1787539736 | 24.44° C | 44% | 1017.8 hPa | 0 mm | - | 0 W/m² | - |
| 1787539142 | 25° C | 44% | 1017.6 hPa | 0 mm | - | 0 W/m² | - |
| 1787538548 | 25.56° C | 43% | 1017.5 hPa | 0 mm | - | 0 W/m² | - |
| 1787537954 | 25.56° C | 42% | 1017.4 hPa | 0 mm | - | 9 W/m² | - |
| 1787537657 | 26.11° C | 41% | 1017.4 hPa | 0 mm | - | 11 W/m² | - |
| 1787537063 | 26.67° C | 40% | 1016.6 hPa | 0 mm | - | 18 W/m² | - |
| 1787536469 | 27.22° C | 39% | 1016.5 hPa | 0 mm | - | 35 W/m² | - |
| 1787536172 | 27.22° C | 39% | 1016.5 hPa | 0 mm | - | 46 W/m² | - |
| 1787535875 | 27.22° C | 39% | 1016.7 hPa | 0 mm | - | 60 W/m² | - |
| 1787535578 | 27.22° C | 39% | 1016.7 hPa | 0 mm | - | 49 W/m² | - |
| 1787535281 | 27.78° C | 38% | 1016.6 hPa | 0 mm | - | 51 W/m² | - |
| 1787534984 | 28.33° C | 38% | 1016.6 hPa | 0 mm | - | 32 W/m² | - |
| 1787534687 | 28.33° C | 37% | 1016.6 hPa | 0 mm | - | 65 W/m² | - |
| 1787534093 | 29.44° C | 36% | 1016.4 hPa | 0 mm | - | 179 W/m² | - |
| 1787533796 | 30° C | 35% | 1016.5 hPa | 0 mm | - | 202 W/m² | - |
| 1787533499 | 30.56° C | 34% | 1016.5 hPa | 0 mm | - | 234 W/m² | - |
| 1787533202 | 30.56° C | 33% | 1016.5 hPa | 0 mm | - | 260 W/m² | - |
| 1787532608 | 31.11° C | 31% | 1017.4 hPa | 0 mm | - | 329 W/m² | - |
| 1787532014 | 31.11° C | 31% | 1016.5 hPa | 0 mm | - | 373 W/m² | - |
| 1787531717 | 31.67° C | 30% | 1016.5 hPa | 0 mm | - | 239 W/m² | - |
| 1787531420 | 32.22° C | 28% | 1016.4 hPa | 0 mm | - | 200 W/m² | - |
| 1787531123 | 32.22° C | 28% | 1016.5 hPa | 0 mm | - | 381 W/m² | - |
* Rain latest hour (hover to see other rain measurements)
** Current wind speed in m/s (hover to see current wind gust speed)